Location: Unspecified
(56.5167°N, 0.0000°E)
Time: 11:23:59
(UTC+02:00)

Resurs 1-4 Rocket - Pass Details

Date: 09 August 2020
Orbit: 799 x 815 km, 98.6° (Epoch: 23 September)

Event Time Altitude Azimuth Distance (km) Brightness Sun altitude
Rises 02:38:46 0° 22° (NNE) 3,338 6.9 -17.4°
Reaches altitude 10° 02:41:32 10° 35° (NE) 2,399 5.6 -17.3°
Maximum altitude 02:45:53 25° 90° (E) 1,564 3.7 -17.2°
Enters shadow 02:49:25 14° 140° (SE) 2,139 3.9 -17.1°
